This is the latest recevied weather packets stored in our database for station/object KC0RPY. If no packets are shown the sender has not sent any weather packets the latest 10 day(s).
| Time | Temp. | Humidity | Pressure | Rain* | Wind** | Luminosity | Snow |
|---|---|---|---|---|---|---|---|
| 1777606492 | 10.56° C | 70% | 1019.8 hPa | 0 mm | - | 0 W/m² | - |
| 1777606188 | 11.11° C | 70% | 1019.5 hPa | 0 mm | - | 0 W/m² | - |
| 1777605884 | 11.11° C | 70% | 1019.8 hPa | 0 mm | - | 0 W/m² | - |
| 1777605579 | 11.11° C | 70% | 1019.5 hPa | 0 mm | - | 0 W/m² | - |
| 1777605274 | 11.11° C | 70% | 1019.5 hPa | 0 mm | - | 0 W/m² | - |
| 1777604970 | 11.11° C | 70% | 1019.5 hPa | 0 mm | - | 0 W/m² | - |
| 1777604660 | 11.11° C | 70% | 1019.1 hPa | 0 mm | - | 0 W/m² | - |
| 1777604357 | 11.11° C | 69% | 1019.5 hPa | 0 mm | - | 0 W/m² | - |
| 1777604057 | 11.67° C | 68% | 1019.5 hPa | 0 mm | - | 0 W/m² | - |
| 1777603755 | 11.67° C | 68% | 1019.1 hPa | 0 mm | - | 0 W/m² | - |
| 1777603450 | 11.67° C | 68% | 1019.1 hPa | 0 mm | - | 0 W/m² | - |
| 1777603147 | 11.67° C | 67% | 1019.1 hPa | 0 mm | - | 0 W/m² | - |
| 1777602841 | 11.67° C | 67% | 1019.1 hPa | 0 mm | - | 0 W/m² | - |
| 1777602536 | 11.67° C | 68% | 1018.8 hPa | 0 mm | - | 0 W/m² | - |
| 1777602233 | 12.22° C | 68% | 1018.8 hPa | 0 mm | - | 0 W/m² | - |
| 1777601929 | 12.22° C | 67% | 1018.8 hPa | 0 mm | - | 0 W/m² | - |
| 1777601623 | 12.22° C | 67% | 1018.5 hPa | 0 mm | - | 0 W/m² | - |
| 1777601319 | 12.22° C | 66% | 1018.5 hPa | 0 mm | - | 0 W/m² | - |
| 1777601016 | 12.78° C | 66% | 1018.1 hPa | 0 mm | - | 0 W/m² | - |
| 1777600712 | 12.22° C | 67% | 1018.5 hPa | 0 mm | - | 0 W/m² | - |
| 1777600409 | 12.78° C | 66% | 1018.1 hPa | 0 mm | - | 0 W/m² | - |
| 1777600104 | 12.78° C | 66% | 1018.1 hPa | 0 mm | - | 0 W/m² | - |
| 1777599800 | 13.33° C | 64% | 1018.1 hPa | 0 mm | - | 0 W/m² | - |
| 1777599495 | 13.33° C | 64% | 1017.7 hPa | 0 mm | - | 0 W/m² | - |
| 1777599193 | 13.33° C | 64% | 1018.1 hPa | 0 mm | - | 0 W/m² | - |
* Rain latest hour (hover to see other rain measurements)
** Current wind speed in m/s (hover to see current wind gust speed)